Location: Unspecified
(0.0000°N, 0.0000°E)
Time: 08:19:39
(UTC+00:00)

Transit 4A - All Passes

Search period start: 03 April 2020 00:00
Search period end: 13 April 2020 00:00
Orbit: 871 x 973 km, 66.8° (Epoch: 02 April)

Date Brightness Start Highest point End Pass type
(mag) Time Alt. Az. Time Alt. Az. Time Alt. Az.
03 Apr - 01:12:31 10° NNW 01:18:40 83° ENE 01:24:58 10° SSE night (unlit)
03 Apr - 12:25:30 10° S 12:30:43 30° ESE 12:35:47 10° NE daylight
03 Apr - 14:12:25 10° WSW 14:16:45 21° WNW 14:21:02 10° NNW daylight
03 Apr - 23:40:15 10° NE 23:41:52 11° ENE 23:43:30 10° E night (unlit)
04 Apr - 01:21:55 10° NNW 01:27:56 59° WSW 01:34:09 10° S night (unlit)
04 Apr - 12:34:09 10° S 12:40:00 53° ESE 12:45:42 10° NE daylight
04 Apr - 14:24:21 10° W 14:26:03 11° WNW 14:27:44 10° NW daylight
04 Apr - 23:46:47 10° NNE 23:51:11 20° ENE 23:55:38 10° ESE night (unlit)
05 Apr - 01:31:43 10° NW 01:37:14 35° WSW 01:42:54 10° S night (unlit)
05 Apr - 12:43:15 10° SSW 12:49:17 89° WNW 12:55:09 10° NNE daylight
05 Apr - 23:54:56 10° N 00:00:27 35° ENE 00:06:04 10° SE night (unlit)
06 Apr - 01:42:07 10° WNW 01:46:34 20° WSW 01:51:05 10° SSW night (unlit)
06 Apr - 11:10:17 10° SE 11:12:23 12° ESE 11:14:26 10° E daylight
06 Apr - 12:52:44 10° SW 12:58:32 51° WNW 13:04:12 10° N daylight
07 Apr - 00:03:41 10° N 00:09:42 59° ENE 00:15:55 10° SSE night (unlit)
07 Apr - 01:54:07 10° W 01:55:55 11° WSW 01:57:45 10° SW night (unlit)
07 Apr - 11:17:16 10° SSE 11:21:43 21° ESE 11:26:06 10° ENE daylight
07 Apr - 13:02:41 10° SW 13:07:48 29° WNW 13:12:48 10° NNW daylight
08 Apr - 00:12:49 10° NNW 00:18:59 83° WSW 00:25:19 10° SSE night (unlit)
08 Apr - 11:25:33 10° S 11:31:02 37° ESE 11:36:24 10° NE daylight
08 Apr - 13:13:24 10° WSW 13:17:04 17° WNW 13:20:42 10° NNW daylight
08 Apr - 22:39:08 10° NE 22:42:13 14° ENE 22:45:19 10° E night (unlit)
09 Apr - 00:22:21 10° NW 00:28:16 49° WSW 00:34:21 10° S night (unlit)
09 Apr - 11:34:22 10° S 11:40:20 65° ESE 11:46:07 10° NNE daylight
09 Apr - 22:46:36 10° NNE 22:51:30 25° ENE 22:56:29 10° ESE night (unlit)
10 Apr - 00:32:21 10° NW 00:37:35 29° WSW 00:42:56 10° SSW night (unlit)
10 Apr - 11:43:36 10° SSW 11:49:35 74° WNW 11:55:25 10° NNE daylight
10 Apr - 22:55:01 10° N 23:00:46 42° ENE 23:06:40 10° SE night (unlit)
11 Apr - 00:43:06 10° WNW 00:46:55 17° WSW 00:50:47 10° SSW night (unlit)
11 Apr - 10:09:30 10° SE 10:12:43 15° ESE 10:15:55 10° ENE daylight
11 Apr - 11:53:15 10° SW 11:58:50 42° WNW 12:04:19 10° N daylight
11 Apr - 23:03:54 10° NNW 23:10:02 72° ENE 23:16:21 10° SSE night (unlit)
12 Apr - 10:17:09 10° SSE 10:22:03 26° ESE 10:26:51 10° NE daylight
12 Apr - 12:03:25 10° WSW 12:08:06 24° WNW 12:12:44 10° NNW daylight
12 Apr - 23:13:11 10° NNW 23:19:19 69° WSW 23:25:37 10° SSE night (unlit)
